View from above orbital plane
|
View from above satellite
|
Ground track
|
The orbit data is extracted from the following two-line orbital elements,
1 39443U 13066AD 21023.54697831 .00000511 00000-0 49831-4 0 9996
2 39443 97.4911 65.4881 0025078 121.8254 238.5415 14.96338635389043
Epoch (UTC): | 23 January 2021 13:07:38 |
Eccentricity: | 0.0025078 |
inclination: | 97.4911° |
perigee height: | 561 km |
apogee height: | 595 km |
right ascension of ascending node: | 65.4881° |
argument of perigee: | 121.8254° |
revolutions per day: | 14.96338635 |
mean anomaly at epoch: | 238.5415° |
orbit number at epoch: | 38904 |
The dashed part of the orbit path shows where the satellite is in the earth's shadow,
|
|